Location: Bacea
(45.9500°N, 22.6667°E)
Time: 08:04:33
(UTC+00:00)

Cosmos 1300 - Pass Details

Date: 30 May 2022
Orbit: 506 x 508 km, 82.5° (Epoch: 06 July)

Event Time Altitude Azimuth Distance (km) Brightness Sun altitude
Rises 23:29:07 0° 341° (NNW) 2,623 7.2 -20.7°
Reaches altitude 10° 23:31:26 10° 330° (NNW) 1,732 5.9 -20.6°
Enters shadow 23:34:35 29° 274° (W) 954 3.9 -20.5°
